This is the latest recevied weather packets stored in our database for station/object OM0XA-10. If no packets are shown the sender has not sent any weather packets the latest 10 day(s).
| Time | Temp. | Humidity | Pressure | Rain* | Wind** | Luminosity | Snow |
|---|---|---|---|---|---|---|---|
| 1777889340 | 25° C | 38% | 1021.1 hPa | - | - | - | - |
| 1777888440 | 25° C | 38% | 1021.1 hPa | - | - | - | - |
| 1777887540 | 25° C | 38% | 1021.3 hPa | - | - | - | - |
| 1777886640 | 24.44° C | 38% | 1021.5 hPa | - | - | - | - |
| 1777885740 | 24.44° C | 38% | 1021.6 hPa | - | - | - | - |
| 1777884840 | 24.44° C | 38% | 1021.6 hPa | - | - | - | - |
| 1777883939 | 23.89° C | 39% | 1021.7 hPa | - | - | - | - |
| 1777883039 | 23.89° C | 39% | 1021.7 hPa | - | - | - | - |
| 1777882139 | 23.89° C | 39% | 1021.6 hPa | - | - | - | - |
| 1777881239 | 23.33° C | 39% | 1021.7 hPa | - | - | - | - |
| 1777880339 | 23.33° C | 39% | 1021.6 hPa | - | - | - | - |
| 1777879439 | 23.33° C | 39% | 1021.6 hPa | - | - | - | - |
| 1777878539 | 23.33° C | 39% | 1021.5 hPa | - | - | - | - |
| 1777877639 | 23.33° C | 39% | 1021.5 hPa | - | - | - | - |
| 1777876739 | 23.33° C | 39% | 1021.5 hPa | - | - | - | - |
| 1777875839 | 23.33° C | 39% | 1021.4 hPa | - | - | - | - |
| 1777874939 | 22.78° C | 39% | 1021.3 hPa | - | - | - | - |
| 1777874038 | 22.78° C | 39% | 1021.4 hPa | - | - | - | - |
| 1777873138 | 22.78° C | 39% | 1021.3 hPa | - | - | - | - |
| 1777872238 | 22.78° C | 39% | 1021.4 hPa | - | - | - | - |
| 1777871338 | 22.78° C | 38% | 1021.4 hPa | - | - | - | - |
| 1777870438 | 23.33° C | 38% | 1021.5 hPa | - | - | - | - |
| 1777869538 | 22.78° C | 38% | 1021.5 hPa | - | - | - | - |
| 1777868638 | 22.78° C | 38% | 1021.3 hPa | - | - | - | - |
| 1777867738 | 22.78° C | 39% | 1021.5 hPa | - | - | - | - |
* Rain since midnight (hover to see other rain measurements)
** Current wind speed in m/s (hover to see current wind gust speed)